Logan, UT

10:30 AM MDT on October 23, 2019 (GMT -0600)
Logan-Cache

Weather History for KLGU - September, 2019

Change the Weather History Date:

Thursday, September 19, 2019

  Actual Average Record
Temperature  
Mean Temperature 56 °F -  
Max Temperature 73 °F 73 °F 91 °F (1962)
Min Temperature 39 °F 42 °F 30 °F (1964)
Degree Days  
Heating Degree Days 10    
Growing Degree Days 6 (Base 50)    
Moisture  
Dew Point 37 °F    
Average Humidity 54    
Maximum Humidity 83    
Minimum Humidity 23    
Precipitation  
Precipitation 0.00 in - - ()
Sea Level Pressure  
Sea Level Pressure 29.78 in    
Wind  
Wind Speed 5 mph ()    
Max Wind Speed 13 mph    
Max Gust Speed -    
Visibility 10.0 miles    
Events      
Averages and records for this station are not official NWS values.
T = Trace of Precipitation, MM = Missing Value Source: Averaged Metar Reports

Daily Weather History Graph

Daily Weather History Graph

Search for Another Location

Airport or City:

Astronomy

Sep. 19, 2019 Rise Set
Actual Time 7:11 AM MDT 7:30 PM MDT
Civil Twilight 6:43 AM MDT 7:57 PM MDT
Nautical Twilight 6:10 AM MDT 8:30 PM MDT
Astronomical Twilight 5:37 AM MDT 9:03 PM MDT
Moon 10:37 PM MDT (9/19) 12:23 PM MDT (9/19)
Length of Visible Light 13h 14m
Length of Day
12h 18m
Waning Gibbous, 74% of the Moon is Illuminated
Sep 19
Waning Gibbous
Sep 21
Last Quarter
Sep 28
New
Oct 5
First Quarter
Oct 13
Full

Hourly Weather History & Observations

Time (MDT) Temp. Windchill Dew Point Humidity Pressure Visibility Wind Dir Wind Speed Gust Speed Precip Events Conditions
12:51 AM 50.0 °F - 37.9 °F 63% 29.79 in 10.0 mi North 9.2 mph - N/A   Clear
1:51 AM 50.0 °F - 37.9 °F 63% 29.79 in 10.0 mi ENE 8.1 mph - N/A   Clear
2:51 AM 46.9 °F - 37.0 °F 68% 29.81 in 10.0 mi Variable 3.5 mph - N/A   Clear
3:51 AM 48.0 °F - 37.0 °F 66% 29.81 in 10.0 mi SE 4.6 mph - N/A   Clear
4:51 AM 45.0 °F 42.6 °F 37.0 °F 74% 29.81 in 10.0 mi SSE 4.6 mph - N/A   Clear
5:51 AM 39.9 °F 37.8 °F 35.1 °F 83% 29.83 in 10.0 mi NNW 3.5 mph - N/A   Clear
6:51 AM 39.9 °F - 35.1 °F 83% 29.83 in 10.0 mi Calm Calm - N/A   Clear
7:51 AM 42.1 °F 39.2 °F 35.1 °F 76% 29.86 in 10.0 mi East 4.6 mph - N/A   Clear
8:51 AM 46.9 °F - 37.9 °F 71% 29.84 in 10.0 mi West 5.8 mph - N/A   Clear
9:51 AM 50.0 °F - 36.0 °F 59% 29.82 in 10.0 mi Calm Calm - N/A   Clear
10:51 AM 55.0 °F - 36.0 °F 49% 29.82 in 10.0 mi Variable 3.5 mph - N/A   Clear
11:51 AM 57.9 °F - 37.9 °F 47% 29.78 in 10.0 mi Variable 3.5 mph - N/A   Clear
12:51 PM 62.1 °F - 37.9 °F 41% 29.76 in 10.0 mi Variable 3.5 mph - N/A   Clear
1:51 PM 64.9 °F - 37.9 °F 37% 29.72 in 10.0 mi North 5.8 mph - N/A   Clear
2:51 PM 69.1 °F - 35.1 °F 29% 29.71 in 10.0 mi Calm Calm - N/A   Clear
3:51 PM 69.1 °F - 35.1 °F 29% 29.69 in 10.0 mi NE 4.6 mph - N/A   Clear
4:51 PM 71.1 °F - 34.0 °F 26% 29.68 in 10.0 mi NNE 9.2 mph - N/A   Clear
5:51 PM 72.0 °F - 32.0 °F 23% 29.68 in 10.0 mi NE 5.8 mph - N/A   Clear
6:51 PM 68.0 °F - 35.1 °F 30% 29.70 in 10.0 mi West 6.9 mph - N/A   Clear
7:51 PM 60.1 °F - 41.0 °F 49% 29.77 in 10.0 mi North 12.7 mph - N/A   Partly Cloudy
8:51 PM 57.0 °F - 39.9 °F 53% 29.81 in 10.0 mi North 11.5 mph - N/A   Clear
9:51 PM 54.0 °F - 41.0 °F 62% 29.83 in 10.0 mi WNW 5.8 mph - N/A   Scattered Clouds
10:51 PM 54.0 °F - 39.9 °F 59% 29.82 in 10.0 mi North 9.2 mph - N/A   Mostly Cloudy
11:51 PM 52.0 °F - 41.0 °F 66% 29.82 in 10.0 mi NNE 3.5 mph - N/A   Mostly Cloudy